Oakland, MD

6:58 AM EDT on June 24, 2017 (GMT -0400)
Oakland

Weather History for K2G4 - March, 2013

Change the Weather History Date:

Friday, March 15, 2013

  Actual Average (KMGW) Record (KMGW)
Temperature  
Mean Temperature 32 °F -  
Max Temperature 41 °F 50 °F 80 °F (1990)
Min Temperature 24 °F 31 °F 8 °F (1993)
Degree Days  
Heating Degree Days 32    
Moisture  
Dew Point 23 °F    
Average Humidity 67    
Maximum Humidity 81    
Minimum Humidity 55    
Precipitation  
Precipitation 0.00 in - - ()
Sea Level Pressure  
Sea Level Pressure 29.88 in    
Wind  
Wind Speed 14 mph (West)    
Max Wind Speed 22 mph    
Max Gust Speed 33 mph    
Visibility 10 miles    
Events      
Averages and records for this station are not official NWS values.
T = Trace of Precipitation, MM = Missing Value Source: NWS Daily Summary

Daily Weather History Graph

Daily Weather History Graph

Search for Another Location

Airport or City:

Trip Planner

Search our weather history database for the weather conditions in past years. The results will help you decide how hot, cold, wet, or windy it might be!

Date:

Astronomy

Mar. 15, 2013 Rise Set
Actual Time 7:28 AM EDT 7:24 PM EDT
Civil Twilight 7:01 AM EDT 7:51 PM EDT
Nautical Twilight 6:30 AM EDT 8:22 PM EDT
Astronomical Twilight 5:58 AM EDT 8:54 PM EDT
Moon 9:18 AM EDT (3/15) 11:35 PM EDT (3/15)
Length of Visible Light 12h 49m
Length of Day
11h 56m
Waxing Crescent, 15% of the Moon is Illuminated
Mar 15
Waxing Crescent
Mar 19
First Quarter
Mar 27
Full
Apr 3
Last Quarter
Apr 10
New

Hourly Weather History & Observations

Time (EDT) Temp. Windchill Dew Point Humidity Pressure Visibility Wind Dir Wind Speed Gust Speed Precip Events Conditions
12:05 AM 26.6 °F 15.7 °F 17.6 °F 69% 30.02 in 10.0 mi West 12.7 mph 20.7 mph N/A   Clear
12:25 AM 26.6 °F 15.7 °F 17.6 °F 69% 30.01 in 10.0 mi West 12.7 mph 21.9 mph N/A   Clear
12:45 AM 26.6 °F 15.2 °F 17.6 °F 69% 30.01 in 10.0 mi West 13.8 mph 18.4 mph N/A   Clear
1:05 AM 26.6 °F 16.2 °F 17.6 °F 69% 30.01 in 10.0 mi West 11.5 mph 21.9 mph N/A   Clear
1:25 AM 24.8 °F 13.4 °F 17.6 °F 74% 29.99 in 10.0 mi West 12.7 mph 20.7 mph N/A   Clear
1:45 AM 24.8 °F 14.0 °F 17.6 °F 74% 29.99 in 10.0 mi West 11.5 mph 18.4 mph N/A   Clear
2:05 AM 24.8 °F 15.3 °F 17.6 °F 74% 29.98 in 10.0 mi West 9.2 mph 18.4 mph N/A   Clear
2:25 AM 24.8 °F 14.0 °F 17.6 °F 74% 29.99 in 10.0 mi West 11.5 mph 18.4 mph N/A   Clear
3:05 AM 24.8 °F 14.0 °F 17.6 °F 74% 29.98 in 10.0 mi West 11.5 mph 19.6 mph N/A   Clear
3:25 AM 24.8 °F 14.0 °F 17.6 °F 74% 29.98 in 10.0 mi West 11.5 mph 21.9 mph N/A   Clear
3:50 AM 24.8 °F 14.0 °F 17.6 °F 74% 29.97 in 10.0 mi West 11.5 mph 20.7 mph N/A   Clear
4:10 AM 24.8 °F 14.0 °F 15.8 °F 69% 29.96 in 10.0 mi West 11.5 mph 21.9 mph N/A   Clear
4:30 AM 24.8 °F 12.4 °F 15.8 °F 69% 29.95 in 10.0 mi West 15.0 mph 23.0 mph N/A   Clear
4:50 AM 24.8 °F 12.4 °F 15.8 °F 69% 29.95 in 10.0 mi West 15.0 mph 23.0 mph N/A   Clear
5:10 AM 24.8 °F 11.9 °F 15.8 °F 69% 29.94 in 10.0 mi West 16.1 mph 24.2 mph N/A   Clear
5:30 AM 24.8 °F 12.4 °F 14.0 °F 64% 29.94 in 10.0 mi West 15.0 mph 25.3 mph N/A   Clear
5:50 AM 26.6 °F 14.3 °F 15.8 °F 64% 29.94 in 10.0 mi West 16.1 mph 23.0 mph N/A   Clear
6:10 AM 26.6 °F 14.7 °F 15.8 °F 64% 29.94 in 10.0 mi West 15.0 mph 24.2 mph N/A   Clear
6:30 AM 26.6 °F 15.2 °F 15.8 °F 64% 29.94 in 10.0 mi West 13.8 mph 24.2 mph N/A   Clear
6:50 AM 24.8 °F 11.9 °F 14.0 °F 64% 29.93 in 10.0 mi West 16.1 mph 24.2 mph N/A   Clear
7:10 AM 24.8 °F 12.9 °F 14.0 °F 64% 29.94 in 10.0 mi West 13.8 mph 23.0 mph N/A   Clear
7:30 AM 26.6 °F 14.7 °F 14.0 °F 59% 29.93 in 10.0 mi West 15.0 mph 24.2 mph N/A   Clear
7:50 AM 26.6 °F 13.8 °F 14.0 °F 59% 29.93 in 10.0 mi West 17.3 mph 25.3 mph N/A   Scattered Clouds
8:10 AM 26.6 °F 14.7 °F 14.0 °F 59% 29.93 in 10.0 mi West 15.0 mph 24.2 mph N/A   Mostly Cloudy
8:30 AM 26.6 °F 14.3 °F 14.0 °F 59% 29.92 in 10.0 mi West 16.1 mph 24.2 mph N/A   Overcast
8:50 AM 28.4 °F 16.2 °F 14.0 °F 55% 29.92 in 10.0 mi West 17.3 mph 25.3 mph N/A   Overcast
9:10 AM 28.4 °F 16.2 °F 14.0 °F 55% 29.92 in 10.0 mi West 17.3 mph 24.2 mph N/A   Overcast
9:30 AM 28.4 °F 15.8 °F 14.0 °F 55% 29.91 in 10.0 mi West 18.4 mph 26.5 mph N/A   Overcast
9:50 AM 30.2 °F 18.1 °F 15.8 °F 55% 29.90 in 10.0 mi WSW 18.4 mph 26.5 mph N/A   Overcast
10:10 AM 30.2 °F 18.5 °F 17.6 °F 60% 29.90 in 10.0 mi WSW 17.3 mph 24.2 mph N/A   Mostly Cloudy
10:30 AM 30.2 °F 18.1 °F 17.6 °F 60% 29.89 in 10.0 mi WSW 18.4 mph 26.5 mph N/A   Scattered Clouds
10:50 AM 32.0 °F 19.8 °F 19.4 °F 60% 29.88 in 10.0 mi WSW 20.7 mph 31.1 mph N/A   Clear
11:10 AM 32.0 °F 20.8 °F 21.2 °F 64% 29.88 in 10.0 mi WSW 17.3 mph 33.4 mph N/A   Clear
11:30 AM 32.0 °F 20.5 °F 21.2 °F 64% 29.87 in 10.0 mi West 18.4 mph 28.8 mph N/A   Clear
11:50 AM 33.8 °F 22.8 °F 23.0 °F 65% 29.87 in 10.0 mi West 18.4 mph 28.8 mph N/A   Clear
12:10 PM 33.8 °F 23.9 °F 26.6 °F 75% 29.88 in 10.0 mi West 15.0 mph 28.8 mph N/A   Scattered Clouds
12:30 PM 33.8 °F 23.9 °F 26.6 °F 75% 29.86 in 10.0 mi West 15.0 mph 21.9 mph N/A   Overcast
12:50 PM 33.8 °F 24.3 °F 28.4 °F 81% 29.86 in 10.0 mi West 13.8 mph 28.8 mph N/A   Overcast
1:10 PM 35.6 °F 24.2 °F 28.4 °F 75% 29.85 in 10.0 mi WSW 21.9 mph 26.5 mph N/A   Mostly Cloudy
1:30 PM 35.6 °F 26.6 °F 28.4 °F 75% 29.84 in 10.0 mi West 13.8 mph 26.5 mph N/A   Scattered Clouds
1:50 PM 37.4 °F 27.5 °F 28.4 °F 70% 29.83 in 10.0 mi West 18.4 mph 28.8 mph N/A   Clear
2:10 PM 37.4 °F 28.2 °F 28.4 °F 70% 29.82 in 10.0 mi West 16.1 mph 28.8 mph N/A   Scattered Clouds
2:30 PM 37.4 °F 28.5 °F 28.4 °F 70% 29.82 in 10.0 mi WSW 15.0 mph 21.9 mph N/A   Mostly Cloudy
2:50 PM 39.2 °F 29.8 °F 28.4 °F 65% 29.81 in 10.0 mi WSW 18.4 mph 25.3 mph N/A   Scattered Clouds
3:10 PM 39.2 °F 31.6 °F 28.4 °F 65% 29.81 in 10.0 mi WSW 12.7 mph 23.0 mph N/A   Clear
3:30 PM 39.2 °F 32.5 °F 28.4 °F 65% 29.80 in 10.0 mi WSW 10.4 mph 18.4 mph N/A   Scattered Clouds
3:50 PM 41.0 °F 33.5 °F 28.4 °F 61% 29.80 in 10.0 mi West 13.8 mph 21.9 mph N/A   Mostly Cloudy
4:10 PM 41.0 °F 33.9 °F 28.4 °F 61% 29.79 in 10.0 mi West 12.7 mph 19.6 mph N/A   Scattered Clouds
4:30 PM 41.0 °F 33.5 °F 28.4 °F 61% 29.79 in 10.0 mi WSW 13.8 mph 23.0 mph N/A   Clear
4:50 PM 41.0 °F 32.5 °F 28.4 °F 61% 29.79 in 10.0 mi West 17.3 mph 26.5 mph N/A   Clear
5:10 PM 41.0 °F 34.3 °F 28.4 °F 61% 29.78 in 10.0 mi WSW 11.5 mph 19.6 mph N/A   Clear
5:30 PM 41.0 °F 32.5 °F 28.4 °F 61% 29.78 in 10.0 mi West 17.3 mph 24.2 mph N/A   Clear
5:50 PM 41.0 °F 33.9 °F 28.4 °F 61% 29.78 in 10.0 mi WSW 12.7 mph 21.9 mph N/A   Clear
6:10 PM 41.0 °F 34.3 °F 30.2 °F 65% 29.78 in 10.0 mi West 11.5 mph 16.1 mph N/A   Clear
6:30 PM 41.0 °F 34.3 °F 30.2 °F 65% 29.78 in 10.0 mi West 11.5 mph 17.3 mph N/A   Scattered Clouds
6:50 PM 41.0 °F 36.4 °F 30.2 °F 65% 29.78 in 10.0 mi West 6.9 mph - N/A   Mostly Cloudy
7:10 PM 41.0 °F 35.8 °F 30.2 °F 65% 29.78 in 10.0 mi West 8.1 mph - N/A   Overcast
7:30 PM 41.0 °F 33.9 °F 30.2 °F 65% 29.80 in 10.0 mi West 12.7 mph 19.6 mph N/A   Overcast
7:50 PM 41.0 °F 33.9 °F 30.2 °F 65% 29.80 in 10.0 mi West 12.7 mph 18.4 mph N/A   Overcast
8:10 PM 41.0 °F 33.9 °F 30.2 °F 65% 29.81 in 10.0 mi West 12.7 mph 18.4 mph N/A   Mostly Cloudy
8:30 PM 39.2 °F 32.0 °F 30.2 °F 70% 29.81 in 10.0 mi West 11.5 mph 18.4 mph N/A   Scattered Clouds
8:50 PM 39.2 °F 32.5 °F 30.2 °F 70% 29.80 in 10.0 mi WNW 10.4 mph - N/A   Mostly Cloudy
9:10 PM 39.2 °F 32.5 °F 30.2 °F 70% 29.81 in 10.0 mi West 10.4 mph 18.4 mph N/A   Overcast
9:30 PM 39.2 °F 32.5 °F 30.2 °F 70% 29.81 in 10.0 mi West 10.4 mph 16.1 mph N/A   Overcast
9:50 PM 39.2 °F 31.2 °F 30.2 °F 70% 29.81 in 10.0 mi West 13.8 mph 19.6 mph N/A   Overcast
10:10 PM 39.2 °F 32.0 °F 30.2 °F 70% 29.81 in 10.0 mi West 11.5 mph 18.4 mph N/A   Overcast
11:30 PM 37.4 °F 29.8 °F 32.0 °F 81% 29.80 in 10.0 mi West 11.5 mph 16.1 mph N/A   Overcast
11:50 PM 37.4 °F 29.8 °F 32.0 °F 81% 29.79 in 10.0 mi West 11.5 mph 20.7 mph N/A   Overcast